This is the latest recevied weather packets stored in our database for station/object SQ8SW-4. If no packets are shown the sender has not sent any weather packets the latest 10 day(s).
| Time | Temp. | Humidity | Pressure | Rain* | Wind** | Luminosity | Snow |
|---|---|---|---|---|---|---|---|
| 1777525472 | 1.11° C | 72% | 1002 hPa | - | - | - | - |
| 1777524570 | 1.11° C | 72% | 1002 hPa | - | - | - | - |
| 1777523668 | 0.56° C | 73% | 1002 hPa | - | - | - | - |
| 1777522766 | 0.56° C | 73% | 1002 hPa | - | - | - | - |
| 1777521864 | 0° C | 75% | 1001 hPa | - | - | - | - |
| 1777520961 | -0.56° C | 76% | 1001 hPa | - | - | - | - |
| 1777520059 | -0.56° C | 77% | 1001 hPa | - | - | - | - |
| 1777519157 | -0.56° C | 78% | 1001 hPa | - | - | - | - |
| 1777518255 | -0.56° C | 78% | 1001 hPa | - | - | - | - |
| 1777517352 | -0.56° C | 78% | 1001 hPa | - | - | - | - |
| 1777516450 | 0° C | 77% | 1001 hPa | - | - | - | - |
| 1777515548 | 0° C | 77% | 1001 hPa | - | - | - | - |
| 1777514646 | 0° C | 77% | 1001 hPa | - | - | - | - |
| 1777513744 | 0° C | 76% | 1001 hPa | - | - | - | - |
| 1777512841 | 0° C | 76% | 1001 hPa | - | - | - | - |
| 1777511939 | 0.56° C | 76% | 1001 hPa | - | - | - | - |
| 1777511037 | 0.56° C | 75% | 1001 hPa | - | - | - | - |
| 1777510135 | 1.11° C | 73% | 1001 hPa | - | - | - | - |
| 1777509232 | 1.11° C | 72% | 1001 hPa | - | - | - | - |
| 1777508330 | 1.11° C | 72% | 1001 hPa | - | - | - | - |
| 1777507428 | 1.11° C | 73% | 1001 hPa | - | - | - | - |
| 1777506526 | 1.11° C | 73% | 1001 hPa | - | - | - | - |
| 1777502014 | 1.67° C | 68% | 1000 hPa | - | - | - | - |
| 1777501112 | 2.22° C | 67% | 1000 hPa | - | - | - | - |
| 1777500210 | 2.22° C | 66% | 1000 hPa | - | - | - | - |
* Rain since midnight (hover to see other rain measurements)
** Current wind speed in m/s (hover to see current wind gust speed)